Location: Aldenham
(51.6667°N, 0.3500°W)
Time: 17:23:35
(UTC+00:00)

Vanguard 2 Rocket - Pass Details

Date: 17 February 2026
Orbit: 553 x 3286 km, 32.9° (Epoch: 11 March)

Event Time Altitude Azimuth Distance (km) Brightness Sun altitude
Rises 12:25:09 0° 222° (SW) 7,235 12.2 26.4°
Reaches altitude 10° 12:31:16 10° 213° (SSW) 6,077 12.3 26.4°
Maximum altitude 12:45:09 28° 164° (SSE) 4,022 11.8 26.1°
Drops below altitude 10° 12:55:20 10° 113° (ESE) 4,418 10.6 25.9°
Sets 12:58:53 0° 102° (ESE) 5,035 10.7 25.8°
